レモン彗星

C/2019 T2 ( Lemmon )

English version
Home page
Updated on September 18, 2021

---------------------------------------------------------------------

・ プロフィール

発見日 2019年10月9日
発見光度 20.6等
発見者 Mt. Lemmon Survey

・ 写真集

・ 軌道要素

Epoch 2021 Apr. 16.0 TT = JDT 2459320.5
T 2021 Apr. 22.27011 TT                                 Rudenko
q   2.6459582            (2000.0)            P               Q
z  +0.0004952      Peri.  239.38566     +0.33390707     -0.86095035
 +/-0.0000012      Node   155.64265     -0.13766197     +0.35821912
e   0.9986896      Incl.  111.48877     -0.93249946     -0.36116971
From 763 observations 2019 Aug. 26-2021 May 11, mean residual 0".7.

・ 星図

・ 光度変化

        m1 = 8.0 + 5 logΔ + 11.0 log r

---------------------------------------------------------------------

軌道要素はM.P.E.C. 2021-L04に掲載されたものです。
星図はステラナビゲータ Ver.10 (アストロアーツ) で作成したものです。
光度グラフはComet for Windowsで作成したものです。

---------------------------------------------------------------------

Copyright(C) Seiichi Yoshida (comet@aerith.net). All rights reserved.